This demonstration page uses our WeatherBlox Daily Observations layout. Learn more.

Left ArrowRight Arrow

39.51506, -84.39828

Hourly Observations for May 17, 2016

Temp ( °F °C ) Dew Point ( °F °C ) Humidity (%) Winds ( mph kmh ) Pressure ( in mb ) Visibility ( mi km ) Precip ( " mm )
12:15 am 00:15 Cloudy 57 13.8 42 5.7 58 58 N N/A 30.21 1023 10 16.0934 N/A
12:35 am 00:35 Cloudy 57 13.8 37 2.5 47 47 undefined N/A 30.21 1023 10 16.0934 N/A
12:55 am 00:55 Cloudy 56 13.1 38 3.6 53 53 N N/A 30.21 1023 10 16.0934 N/A
1:15 am 01:15 Cloudy 56 13.6 39 3.8 52 52 SSW 3 6 30.21 1023 10 16.0934 N/A
1:35 am 01:35 Cloudy 56 13.1 37 3 51 51 N N/A 30.21 1023 10 16.0934 N/A
1:55 am 01:55 Cloudy 55 12.5 37 2.9 52 52 S 6 9 30.21 1023 10 16.0934 N/A
2:15 am 02:15 Cloudy 55 12.5 38 3.4 54 54 NNW 3 6 30.21 1023 10 16.0934 N/A
2:35 am 02:35 Cloudy 55 12.5 38 3.1 53 53 S 3 6 30.21 1023 10 16.0934 N/A
2:55 am 02:55 Cloudy 55 12.6 36 2 49 49 N N/A 30.21 1023 10 16.0934 N/A
3:15 am 03:15 Cloudy 55 12.5 39 4 56 56 N N/A 30.21 1023 10 16.0934 N/A
3:35 am 03:35 Cloudy with Drizzle 55 12.5 44 6.9 69 69 undefined N/A 30.21 1023 10 16.0934 N/A
3:55 am 03:55 Cloudy with Light Rain 55 12.5 43 6.3 66 66 undefined N/A 30.21 1023 10 16.0934 N/A
4:15 am 04:15 Cloudy with Drizzle 55 12.5 44 6.8 68 68 undefined N/A 30.21 1023 10 16.0934 N/A
4:35 am 04:35 Cloudy with Drizzle 52 11 45 7.2 78 78 undefined N/A 30.21 1023 10 16.0934 N/A
4:55 am 04:55 Cloudy 52 11 46 7.5 79 79 undefined N/A 30.21 1023 10 16.0934 N/A
5:15 am 05:15 Cloudy 52 11 46 7.5 79 79 undefined N/A 30.21 1023 10 16.0934 N/A
5:35 am 05:35 Cloudy with Drizzle 52 11 46 7.5 79 79 undefined N/A 30.21 1023 10 16.0934 N/A
5:55 am 05:55 Cloudy with Drizzle 52 11 46 7.5 79 79 undefined N/A 30.21 1023 10 16.0934 N/A
6:15 am 06:15 Cloudy with Drizzle 52 11 46 7.5 79 79 undefined N/A 30.21 1023 10 16.0934 N/A
6:35 am 06:35 Cloudy 52 11 46 7.7 80 80 undefined N/A 30.24 1024 10 16.0934 N/A
6:55 am 06:55 Cloudy 52 11 46 7.7 80 80 undefined N/A 30.24 1024 10 16.0934 N/A
7:15 am 07:15 Cloudy 52 11 46 7.7 80 80 undefined N/A 30.24 1024 10 16.0934 N/A
7:35 am 07:35 Cloudy 55 12.5 48 8.8 78 78 N N/A 30.24 1024 10 16.0934 N/A
7:55 am 07:55 Cloudy 55 12.5 48 8.7 78 78 undefined N/A 30.24 1024 10 16.0934 N/A
8:15 am 08:15 Cloudy 55 12.5 47 8.3 76 76 undefined N/A 30.24 1024 10 16.0934 N/A
8:35 am 08:35 Cloudy 55 12.5 44 6.7 68 68 undefined N/A 30.24 1024 10 16.0934 N/A
8:55 am 08:55 Cloudy 55 12.5 42 5.7 64 64 N N/A 30.24 1024 10 16.0934 N/A
9:15 am 09:15 Cloudy 55 12.5 42 5.4 62 62 NNE 3 6 30.24 1024 10 16.0934 N/A
9:35 am 09:35 Cloudy 55 12.5 42 5.4 62 62 SSE 6 9 30.24 1024 10 16.0934 N/A
9:55 am 09:55 Cloudy 55 12.5 41 5 61 61 undefined N/A 30.24 1024 10 16.0934 N/A
10:15 am 10:15 Cloudy 55 12.5 40 4.3 58 58 undefined N/A 30.24 1024 10 16.0934 N/A
10:35 am 10:35 Cloudy 55 12.5 40 4.3 58 58 undefined N/A 30.24 1024 10 16.0934 N/A
10:55 am 10:55 Cloudy 56 13.1 41 4.8 57 57 undefined N/A 30.24 1024 10 16.0934 N/A
11:15 am 11:15 Cloudy 57 13.8 41 5.2 56 56 undefined N/A 30.24 1024 10 16.0934 N/A
11:35 am 11:35 Cloudy 57 13.8 41 5.1 56 56 undefined N/A 30.24 1024 10 16.0934 N/A
11:55 am 11:55 Cloudy with Drizzle 57 13.8 41 4.9 55 55 undefined N/A 30.24 1024 10 16.0934 N/A
12:15 pm 12:15 Cloudy with Light Rain 57 13.8 42 5.6 58 58 undefined N/A 30.24 1024 10 16.0934 N/A
12:35 pm 12:35 Cloudy with Light Rain 57 13.8 42 5.3 57 57 undefined N/A 30.24 1024 10 16.0934 N/A
12:55 pm 12:55 Cloudy with Light Rain 57 13.8 42 5.7 58 58 undefined N/A 30.24 1024 10 16.0934 N/A
1:15 pm 13:15 Cloudy 57 14.1 42 5.5 56 56 undefined N/A 30.24 1024 10 16.0934 N/A
1:35 pm 13:35 Cloudy 57 13.8 42 5.6 58 58 undefined N/A 30.24 1024 10 16.0934 N/A
1:55 pm 13:55 Cloudy 57 13.8 42 5.3 57 57 undefined N/A 30.21 1023 10 16.0934 N/A
2:15 pm 14:15 Cloudy 57 14.1 41 5.1 55 55 undefined N/A 30.21 1023 10 16.0934 N/A
2:35 pm 14:35 Cloudy 57 13.8 41 4.8 55 55 undefined N/A 30.21 1023 10 16.0934 N/A
2:55 pm 14:55 Cloudy 57 13.8 41 4.9 55 55 undefined N/A 30.21 1023 10 16.0934 N/A
3:15 pm 15:15 Cloudy with Light Rain 57 13.8 45 7.1 64 64 undefined N/A 30.21 1023 10 16.0934 N/A
3:35 pm 15:35 Cloudy with Light Rain 57 13.8 46 7.6 66 66 undefined N/A 30.21 1023 10 16.0934 N/A
3:55 pm 15:55 Mostly Cloudy 58 14.7 45 7.1 61 61 undefined N/A 30.18 1022 10 16.0934 N/A
4:15 pm 16:15 Cloudy 60 15.3 44 6.8 57 57 undefined N/A 30.18 1022 10 16.0934 N/A
4:35 pm 16:35 Cloudy 60 15.3 43 6 54 54 undefined N/A 30.18 1022 10 16.0934 N/A
4:55 pm 16:55 Cloudy 60 15.3 42 5.5 52 52 undefined N/A 30.15 1021 10 16.0934 N/A
5:15 pm 17:15 Cloudy 60 15.3 42 5.4 52 52 undefined N/A 30.15 1021 10 16.0934 N/A
5:35 pm 17:35 Cloudy 60 15.3 42 5.5 52 52 undefined N/A 30.15 1021 10 16.0934 N/A
5:55 pm 17:55 Cloudy 59 15.2 43 6 54 54 undefined N/A 30.15 1021 10 16.0934 N/A
6:15 pm 18:15 Cloudy 58 14.2 42 5.3 55 55 undefined N/A 30.15 1021 10 16.0934 N/A
6:35 pm 18:35 Cloudy with Light Rain 57 14.1 41 5.2 55 55 undefined N/A 30.15 1021 10 16.0934 N/A
6:55 pm 18:55 Cloudy 57 13.8 42 5.5 58 58 undefined N/A 30.15 1021 10 16.0934 N/A
7:15 pm 19:15 Cloudy with Light Rain 57 13.8 42 5.7 58 58 undefined N/A 30.15 1021 10 16.0934 N/A
7:35 pm 19:35 Cloudy with Light Rain 57 13.8 46 8 68 68 undefined N/A 30.15 1021 10 16.0934 N/A
7:55 pm 19:55 Cloudy with Light Rain 55 12.6 48 8.8 78 78 undefined N/A 30.15 1021 10 16.0934 N/A
8:15 pm 20:15 Cloudy with Light Rain 55 12.5 48 9 79 79 undefined N/A 30.15 1021 10 16.0934 N/A
8:35 pm 20:35 Cloudy with Light Rain 55 12.5 48 9.1 80 80 undefined N/A 30.15 1021 10 16.0934 N/A
8:55 pm 20:55 Cloudy with Light Rain 55 12.5 48 9 79 79 undefined N/A 30.15 1021 10 16.0934 N/A
9:15 pm 21:15 Cloudy with Light Rain 55 12.5 48 8.9 79 79 undefined N/A 30.15 1021 10 16.0934 N/A
9:35 pm 21:35 Cloudy with Light Rain 55 12.5 48 9.1 80 80 undefined N/A 30.15 1021 10 16.0934 N/A
9:55 pm 21:55 Cloudy with Light Rain 55 12.5 49 9.3 81 81 undefined N/A 30.18 1022 10 16.0934 N/A
10:15 pm 22:15 Cloudy with Light Rain 55 12.5 49 9.3 81 81 undefined N/A 30.18 1022 10 16.0934 N/A
10:35 pm 22:35 Cloudy with Light Rain 55 12.5 49 9.3 81 81 undefined N/A 30.18 1022 7 11.26538 N/A
10:55 pm 22:55 Cloudy with Rain 55 12.5 49 9.3 81 81 undefined N/A 30.18 1022 5 8.0467 N/A
11:15 pm 23:15 Cloudy with Light Rain 55 12.5 49 9.5 82 82 undefined N/A 30.18 1022 5 8.0467 N/A
11:35 pm 23:35 Cloudy with Light Rain 55 12.5 49 9.5 82 82 undefined N/A 30.18 1022 7 11.26538 N/A
11:55 pm 23:55 Cloudy with Light Rain 55 12.5 49 9.4 82 82 undefined N/A 30.15 1021 7 11.26538 N/A

Powered by AerisWeather